Location: Chacón
(10.5789°N, 66.9317°W)
Time: 20:32:00
(UTC+00:00)

Sakura Rocket - Pass Details

Date: 11 August 2024
Orbit: 475 x 1710 km, 28.7° (Epoch: 09 September)

Event Time Altitude Azimuth Distance (km) Brightness Sun altitude
Exits shadow 07:22:54 19° 2° (N) 2,231 6.1 -40.7°
Maximum altitude 07:24:24 21° 18° (NNE) 2,254 6.2 -40.4°
Drops below altitude 10° 07:30:11 10° 63° (ENE) 3,308 7.5 -39.1°
Sets 07:34:30 0° 78° (ENE) 4,516 8.3 -38.2°
